Hourly Weather Roundup
Issued by NWS Central Illinois

Home | Current Version | Previous Version | Text Only | Print | Product List | Glossary On
Versions: 1 2 3 4 5 6 7 8 9 10 11 12 13 14 15 16 17 18 19 20 21 22 23 24 25 26 27 28 29 30 31 32 33 34 35 36 37 38 39 40 41 42 43 44 45 46 47 48 49 50
000
NZUS43 KILX 172310
HWRILX

Area Weather Roundup
National Weather Service Lincoln IL
600 PM CDT TUE OCT 17 2017

NOTE:  "FAIR" indicates few or no clouds below 12,000 feet, with
       no sigificant weather and/or obstructions to visibility.


CITY           SKY/WX    TMP DP  RH WIND       PRES   REMARKS
Bloomington    CLEAR     61  41  47 SW9       30.18R
Champaign      CLEAR     63  39  41 S6        30.20S
Danville       CLEAR     61  39  43 SW12      30.18S
Decatur        CLEAR     62  40  44 S9        30.19S
Effingham      CLEAR     63  41  44 SE3       30.22F
Flora          CLEAR     63  43  48 S6        30.22F
Galesburg      CLEAR     65  42  42 S8        30.13S
Jacksonville   CLEAR     64  41  42 S8        30.16S
Lacon          CLEAR     64  41  42 S5        30.13R
Lawrenceville  CLEAR     60  45  57 S7        30.24S
Litchfield     CLEAR     61  40  45 S8        30.19F
$$


CITY           SKY/WX    TMP DP  RH WIND       PRES   REMARKS
Lincoln        CLEAR     65  41  41 S3        30.17S
Macomb         CLEAR     65  40  38 S8        30.15R
Mattoon        CLEAR     62  42  47 S6        30.20S
Mt Carmel AP   PTCLDY    61  43  50 S3        30.23F
Olney-Noble AP PTCLDY    62  35  37 S6        30.23S
Paris AP       CLEAR     60  41  49 S7        30.22S
Peoria         CLEAR     64  41  42 S10       30.15R
Pontiac        CLEAR     65  40  39 S9        30.16S
Rantoul        CLEAR     63  42  46 S6        30.19S
Robinson       CLEAR     59  40  50 S6        30.24S
Springfield    CLEAR     65  40  39 S10       30.17S
Taylorville    CLEAR     62  39  42 S6        30.19S
$$

...REGIONAL REPORTS...


CITY           SKY/WX    TMP DP  RH WIND       PRES   REMARKS
Chicago O`Hare PTCLDY    67  40  37 SW8       30.11S
Kankakee       CLEAR     65  39  38 SW7       30.17S
Moline         CLEAR     66  42  41 SW6       30.09S
Mount Sterling CLEAR     63  43  49 S8        30.13F
Mount Vernon   CLEAR     60  45  57 S5        30.22F
Pittsfield     CLEAR     65  43  43 S6        30.16S
Quincy         CLEAR     65  42  43 S9        30.13S
Rockford       PTCLDY    67  39  35 SW9       30.10F
$$


CITY           SKY/WX    TMP DP  RH WIND       PRES   REMARKS
Burlington     CLEAR     66  43  43 S9        30.10S
Cedar Rapids   CLEAR     67  43  41 S9        30.05F
Des Moines     CLEAR     69  44  40 S12       30.03R
Kirksville     CLEAR     66  45  46 S8        30.11F
Ottumwa        CLEAR     67  44  43 S9        30.07S
St Louis       PTCLDY    67  39  35 S7        30.18F
$$


CITY           SKY/WX    TMP DP  RH WIND       PRES   REMARKS
Terre Haute    CLEAR     60  40  47 S5        30.22F
Evansville     PTCLDY    63  44  50 CALM      30.25S
Indianapolis   PTCLDY    59  40  49 SW7       30.23S
Lafayette      NOT AVBL
Madison        PTCLDY    68  44  42 S8G18     30.03F
Milwaukee      PTCLDY    69  44  40 SW14G21   30.06S
$$






USA.gov is the U.S. government's official web portal to all federal, state and local government web resources and services.